[[{"header":{"parameterUnit":"m.s-1","parameterCategory":1,"la1":30.2992,"la2":30.254,"lo1":-89.0895,"lo2":-89.0443,"dy":0.0025,"dx":0.0025,"nx":19,"ny":19,"refTime":"2026-04-17T03:00:00:Z","depth":0,"parameterNumber":2,"parameterNumberName":"U-component_of_WINDS"},"data":[0,0,0,0.881,0.8813,0.8966,0.8966,0.9171,0.9173,0,0,0,0,0,0,0,0,0,0,0,0.8768,0.877,0.8809,0.8813,0.8966,0.8966,0.9171,0.9173,0,0,0,0,0,0,0,0,0,0,0,0.8767,0.8769,0.8771,0.8814,0.8966,0.8966,0.917,0.9052,0,0,0,0,0,0,0,0,0,0,0.8903,0.8867,0.8769,0.8771,0.8815,0.8965,0.8966,0.9046,0.906,0.9105,0,0.9144,0,0.9162,0.9187,0.9188,0,0,0,0.8812,0.8856,0.8894,0.8771,0.8816,0.8965,0.8896,0.9054,0.9069,0.9123,0.9147,0.9155,0.9165,0.9188,0.9189,0.9451,0.9452,0,0,0.8803,0.8798,0.8883,0.8904,0.8878,0.8892,0.8901,0.9063,0.909,0.9148,0.9159,0.9168,0.919,0.9191,0.945,0.9452,0,0,0,0.878,0.8793,0.8826,0.8895,0.8922,0.8896,0.8907,0.9083,0.9094,0.9161,0.9171,0.9191,0.9193,0.9449,0.9451,0.9511,0,0,0,0.8775,0.8779,0.8822,0.8821,0.8919,0.9004,0.8924,0.9083,0.9101,0.917,0.9191,0.9195,0.9447,0.945,0.9506,0.9542,0,0,0,0.8757,0.8777,0.88,0.882,0.8885,0.9001,0.9022,0.9087,0.9107,0.9188,0.9196,0.9446,0.9449,0.9502,0.9535,0.9611,0,0,0,0.8737,0.8853,0.8801,0.8933,0.8884,0.9036,0.9021,0.9135,0.9211,0.9192,0.9447,0.945,0.9501,0.9531,0.9606,0.9675,0.9703,0,0,0.8881,0.887,0.8948,0.8906,0.9065,0.9013,0.9183,0.9258,0.9271,0.9391,0.9397,0.9508,0.9535,0.961,0.9853,0.9875,0,0,0,0.8992,0.9049,0.9092,0.9162,0.922,0.9274,0.9322,0.935,0.9451,0.9331,0.9554,0.957,0.9615,0.9648,0.9667,0.9706,0.9465,0.9464,0.9464,0.9192,0.9199,0.9329,0.9354,0.9423,0.947,0.9528,0.9573,0.9563,0.9615,0.9653,0.9799,0.9838,0.9852,0.9893,0.9687,0.9687,0.9687,0.9688,0.9404,0.9487,0.9465,0.9585,0.9592,0.9693,0.9743,0.9732,0.9829,0.9772,0.9812,0.9753,0.9876,0.9912,0.9692,0.9691,0.9691,0.969,0.969,0.9539,0.9579,0.9608,0.9709,0.9787,0.9808,0.9901,0.9904,0.9909,0.9947,0.9988,0.9987,0.9989,0.9965,0.9966,0.9966,0.9967,0.9967,0.9968,0.9669,0.9698,0.9775,0.9844,0.9888,0.9948,0.9995,1.004,1.0091,1.0087,1.0087,1.0073,0.9884,0.9839,0.9976,0.9974,0.9973,0.9972,0.9972,0.9889,0.9838,0.9957,1.0001,1.0082,1.0159,1.0159,1.025,1.0288,1.0334,1.0309,1.0168,1.0159,1.0144,1.0107,1.0305,1.0305,1.0305,1.0305,1.0005,0.9998,1.0119,1.019,1.026,1.0272,1.0407,1.0444,1.0475,1.0499,1.0469,1.0418,1.0403,1.0403,1.0383,1.0348,1.0604,1.0604,1.0604,1.0142,1.0141,1.0256,1.0281,1.0343,1.0397,1.0525,1.061,1.0634,1.0617,1.0518,1.0506,1.0423,1.0396,1.0382,1.035,1.0286,0,0]},{"header":{"parameterUnit":"m.s-1","parameterCategory":1,"la1":30.2992,"la2":30.254,"lo1":-89.0895,"lo2":-89.0443,"dy":0.0025,"dx":0.0025,"nx":19,"ny":19,"refTime":"2026-04-17T03:00:00:Z","depth":0,"parameterNumber":3,"parameterNumberName":"V-component_of_WINDS"},"data":[0,0,0,4.5472,4.5476,4.5648,4.5649,4.5865,4.5867,0,0,0,0,0,0,0,0,0,0,0,4.5422,4.5424,4.5471,4.5476,4.5648,4.5649,4.5865,4.5867,0,0,0,0,0,0,0,0,0,0,0,4.5421,4.5423,4.5425,4.5477,4.5648,4.5649,4.5864,4.5735,0,0,0,0,0,0,0,0,0,0,4.5567,4.5524,4.5423,4.5425,4.5478,4.5648,4.5649,4.5728,4.5743,4.5786,0,4.5829,0,4.5852,4.5881,4.5882,0,0,0,4.5474,4.5512,4.5558,4.5425,4.5479,4.5648,4.557,4.5736,4.5752,4.5805,4.5832,4.584,4.5855,4.5883,4.5884,4.6151,4.6152,0,0,4.5464,4.5453,4.5547,4.5568,4.5546,4.5564,4.5575,4.5746,4.5773,4.5833,4.5845,4.5859,4.5884,4.5886,4.615,4.6151,0,0,0,4.5438,4.5446,4.5488,4.556,4.5591,4.5569,4.5582,4.5765,4.578,4.5847,4.5861,4.5886,4.5888,4.6148,4.615,4.6208,0,0,0,4.5432,4.5431,4.5484,4.5478,4.5588,4.5682,4.5597,4.5768,4.5788,4.586,4.5886,4.589,4.6147,4.6149,4.6203,4.6236,0,0,0,4.541,4.5429,4.5455,4.5478,4.5552,4.5679,4.5704,4.5773,4.5797,4.5882,4.5891,4.6146,4.6149,4.6199,4.6229,4.6303,0,0,0,4.5382,4.5501,4.5455,4.5593,4.5551,4.5715,4.5703,4.5824,4.5905,4.5887,4.6147,4.615,4.6197,4.6225,4.6298,4.6362,4.6389,0,0,4.5526,4.5518,4.56,4.5564,4.5734,4.5689,4.5866,4.5948,4.5964,4.6087,4.6093,4.6204,4.6228,4.6302,4.6541,4.6561,0,0,0,4.5642,4.5701,4.5748,4.5826,4.5894,4.5954,4.6011,4.6041,4.6146,4.6027,4.6252,4.6266,4.6309,4.634,4.6358,4.6395,4.6164,4.6164,4.6164,4.5828,4.5846,4.5982,4.602,4.6095,4.6153,4.6215,4.6264,4.6258,4.6311,4.6347,4.649,4.6527,4.654,4.6578,4.6383,4.6383,4.6383,4.6383,4.6039,4.6125,4.6116,4.6245,4.6261,4.6367,4.6427,4.6419,4.6518,4.6464,4.6503,4.6443,4.6562,4.6597,4.6388,4.6387,4.6387,4.6386,4.6386,4.6163,4.6207,4.6244,4.6358,4.6443,4.6476,4.6573,4.6583,4.6593,4.6632,4.667,4.6669,4.6669,4.665,4.665,4.6651,4.6651,4.6652,4.6652,4.6276,4.6316,4.6399,4.6481,4.6532,4.66,4.6659,4.6708,4.6765,4.6764,4.6765,4.6751,4.6572,4.6526,4.666,4.6658,4.6657,4.6657,4.6656,4.6482,4.6438,4.6565,4.6617,4.6714,4.6796,4.6809,4.6908,4.695,4.6997,4.6976,4.6842,4.6833,4.6819,4.6781,4.6973,4.6973,4.6973,4.6973,4.6586,4.6584,4.6716,4.6798,4.6878,4.6903,4.7042,4.7088,4.7128,4.7154,4.7127,4.7078,4.7063,4.7063,4.7044,4.7009,4.7254,4.7255,4.7255,4.6713,4.6719,4.6838,4.688,4.6957,4.7021,4.7152,4.7242,4.7277,4.7266,4.7174,4.7162,4.7083,4.7056,4.7042,4.7012,4.6948,0,0]}]]